Weather History for Lamoni, IA

Change the Weather History Date:

Friday, July 26, 2013

  Actual Average Record
Temperature  
Mean Temperature 70 °F 75 °F  
Max Temperature 82 °F 85 °F 98 °F (2003)
Min Temperature 58 °F 66 °F 55 °F (2004)
Degree Days  
Heating Degree Days 0 0  
Month to date heating degree days 0 0  
Since 1 June heating degree days 32 19  
Since 1 July heating degree days 0 0  
Cooling Degree Days 5 10  
Month to date cooling degree days 278 263  
Year to date cooling degree days 535 510  
Since 1 June cooling degree days 459 456  
Growing Degree Days 21 (Base 50)    
Moisture  
Dew Point 62 °F    
Average Humidity 64    
Maximum Humidity 93    
Minimum Humidity 35    
Precipitation  
Precipitation 0.03 in 0.15 in 2.75 in (1990)
Month to date precipitation 1.99 4.25  
Sea Level Pressure  
Sea Level Pressure 30.01 in    
Wind  
Wind Speed 10 mph (NW)    
Max Wind Speed 20 mph    
Max Gust Speed 25 mph    
Visibility 10 miles    
Events Rain    
T = Trace of Precipitation, MM = Missing Value Source: NWS Daily Summary

Daily Weather History Graph

Daily Weather History Graph

Search for Another Location

Airport:

Trip Planner

Search our weather history database for the weather conditions in past years. The results will help you decide how hot, cold, wet, or windy it might be!

Date:

Astronomy

Jul. 26, 2013 Rise Set
Actual Time 6:07 AM CDT 8:36 PM CDT
Civil Twilight 5:35 AM CDT 9:07 PM CDT
Nautical Twilight 4:57 AM CDT 9:46 PM CDT
Astronomical Twilight 4:13 AM CDT 10:29 PM CDT
Moon 10:49 PM CDT (7/26) 10:45 AM CDT (7/26)
Length of Visible Light 15h 31m
Length of Day
14h 29m
Waning Gibbous, 80% of the Moon is Illuminated
Jul 26
Waning Gibbous
Jul 29
Last Quarter
Aug 6
New
Aug 14
First Quarter
Aug 20
Full

Hourly Weather History & Observations

Time (CDT) Temp. Heat Index Dew Point Humidity Pressure Visibility Wind Dir Wind Speed Gust Speed Precip Events Conditions
12:53 AM 69.1 °F - 66.0 °F 90% 29.99 in 10.0 mi South 4.6 mph - N/A   Overcast
1:53 AM 69.1 °F - 66.9 °F 93% 29.99 in 10.0 mi SE 3.5 mph - 0.00 in   Overcast
2:53 AM 69.1 °F - 66.0 °F 90% 29.98 in 10.0 mi South 3.5 mph - N/A   Overcast
3:53 AM 69.1 °F - 66.0 °F 90% 29.97 in 5.0 mi SSW 8.1 mph - 0.03 in Rain Rain
4:53 AM 68.0 °F - 66.0 °F 93% 29.97 in 10.0 mi SW 8.1 mph - 0.00 in   Overcast
5:53 AM 68.0 °F - 64.9 °F 90% 29.97 in 10.0 mi SW 8.1 mph - N/A   Overcast
6:53 AM 66.9 °F - 64.9 °F 93% 29.99 in 10.0 mi SW 5.8 mph - N/A   Mostly Cloudy
7:53 AM 69.1 °F - 66.0 °F 90% 29.99 in 10.0 mi WSW 9.2 mph - N/A   Scattered Clouds
8:04 AM 69.8 °F - 66.2 °F 88% 30.01 in 10.0 mi WSW 6.9 mph - N/A   Partly Cloudy
8:53 AM 72.0 °F - 66.9 °F 84% 29.99 in 10.0 mi West 11.5 mph - N/A   Mostly Cloudy
9:36 AM 75.2 °F - 68.0 °F 78% 30.01 in 10.0 mi WNW 8.1 mph - N/A   Mostly Cloudy
9:53 AM 75.0 °F - 68.0 °F 79% 30.00 in 10.0 mi NW 9.2 mph - N/A   Mostly Cloudy
10:00 AM 73.4 °F - 68.0 °F 83% 30.02 in 10.0 mi WNW 10.4 mph - N/A   Mostly Cloudy
10:45 AM 77.0 °F - 66.2 °F 69% 30.03 in 10.0 mi NW 6.9 mph - N/A   Scattered Clouds
10:53 AM 77.0 °F - 66.9 °F 71% 30.01 in 10.0 mi NNW 10.4 mph - N/A   Scattered Clouds
11:12 AM 75.2 °F - 66.2 °F 73% 30.03 in 10.0 mi NNW 9.2 mph - N/A   Mostly Cloudy
11:35 AM 78.8 °F - 66.2 °F 65% 30.04 in 10.0 mi NW 13.8 mph - N/A   Scattered Clouds
11:53 AM 77.0 °F - 66.9 °F 71% 30.01 in 10.0 mi NW 13.8 mph - N/A   Scattered Clouds
12:14 PM 78.8 °F - 66.2 °F 65% 30.03 in 10.0 mi NNW 11.5 mph - N/A   Mostly Cloudy
12:21 PM 78.8 °F - 64.4 °F 61% 30.03 in 10.0 mi NNW 13.8 mph - N/A   Scattered Clouds
12:53 PM 80.1 °F 81.2 °F 62.1 °F 54% 30.01 in 10.0 mi North 13.8 mph - N/A   Partly Cloudy
1:53 PM 81.0 °F 81.3 °F 59.0 °F 47% 30.00 in 10.0 mi NNW 18.4 mph 23.0 mph N/A   Clear
2:53 PM 80.1 °F 79.9 °F 53.1 °F 39% 30.01 in 10.0 mi NW 17.3 mph 25.3 mph N/A   Clear
3:53 PM 80.1 °F - 50.0 °F 35% 30.00 in 10.0 mi NNW 13.8 mph - N/A   Clear
4:53 PM 79.0 °F - 50.0 °F 36% 30.00 in 10.0 mi NNW 13.8 mph - N/A   Clear
5:53 PM 78.1 °F - 53.1 °F 42% 30.01 in 10.0 mi NW 12.7 mph - N/A   Clear
6:53 PM 75.0 °F - 54.0 °F 48% 30.01 in 10.0 mi North 11.5 mph - N/A   Clear
7:53 PM 71.1 °F - 52.0 °F 51% 30.03 in 10.0 mi North 11.5 mph - N/A   Clear
8:53 PM 64.9 °F - 53.1 °F 65% 30.04 in 10.0 mi North 8.1 mph - N/A   Clear
9:53 PM 62.1 °F - 52.0 °F 70% 30.05 in 10.0 mi NNW 4.6 mph - N/A   Clear
10:53 PM 61.0 °F - 52.0 °F 72% 30.06 in 10.0 mi NNW 6.9 mph - N/A   Clear
11:53 PM 57.9 °F - 52.0 °F 81% 30.06 in 10.0 mi NW 5.8 mph - N/A   Clear